Home   Weather   Rio de Janeiro   Past weeks

Flag for Brazil Past Weather in Rio de Janeiro, Rio de Janeiro, Brazil — Yesterday and Last 2 Weeks

Now
79 °F

Passing clouds.


Feels Like: 81 °F
Forecast: 65 / 82 °F
Wind: 10 mph from South

Location: Rio De Janeiro Airport

Current Time: Sep 29, 2016 at 12:19:55 PM

Latest Report: Sep 29, 2016 at 12:00 PM


Visibility: N/A

Pressure: 29.92 "Hg

Humidity: 70%

Dew Point: 68 °F

Location of Rio de JaneiroLocation

Past Weather in Rio de Janeiro — Graph

°F

Rio de Janeiro Temperature Yesterday

Maximum temperature yesterday: 79 °F (at 11:00 AM)
Minimum temperature yesterday: 68 °F (at 2:00 AM)
Average temperature yesterday: 72 °F

High & Low Weather Summary for the Past Weeks

 TemperatureHumidityPressure
High86 °F (Sep 14, 11:00 AM)94% (Sep 18, 4:00 AM)30.21 "Hg (Sep 18, 4:00 AM)
Low66 °F (Sep 20, 4:00 PM)48% (Sep 15, 1:00 PM)29.83 "Hg (Sep 14, 12:00 PM)
Average73 °F76%30.04 "Hg
* Reported Sep 14 11:00 AM — Sep 29 11:00 AM, Rio de Janeiro, Weather by CustomWeather, © 2016

Note: Actual official high and low records may vary slightly from our data, if they occured in-between our weather recording intervals... More about our weather records

Advertising

Rio de Janeiro Weather History for the Previous 24 Hours

Scroll right to see more
 ConditionsComfort  
Time TempWeatherWind HumidityBarometerVisibility
11:00 AM
Thu, Sep 29
81 °FPassing clouds.13 mph66%29.95 "HgN/A
10:00 AM79 °FSunny.3 mph65%29.95 "Hg10 mi
9:00 AM75 °FSunny.7 mph74%29.95 "Hg10 mi
8:00 AM73 °FSunny.5 mph78%29.95 "Hg10 mi
7:00 AM72 °FSunny.7 mph78%29.92 "Hg10 mi
6:00 AM68 °FSunny.3 mph88%29.92 "Hg10 mi
5:00 AM68 °FClear.3 mph88%29.92 "Hg10 mi
4:00 AM68 °FClear.3 mph83%29.92 "Hg10 mi
3:00 AM68 °FClear.3 mph83%29.92 "Hg10 mi
2:00 AM68 °FClear.5 mph83%29.95 "Hg10 mi
1:00 AM70 °FClear.2 mph78%29.95 "Hg10 mi
12:00 AM70 °FClear.3 mph78%29.98 "Hg10 mi
11:00 PM
Wed, Sep 28
70 °FClear.3 mph78%29.98 "Hg10 mi
10:00 PM70 °FClear.6 mph83%30.01 "Hg10 mi
9:00 PM72 °FClear.8 mph73%30.01 "Hg10 mi
8:00 PM72 °FClear.2 mph73%30.01 "Hg10 mi
7:00 PM72 °FClear.10 mph78%30.01 "Hg10 mi
3:00 PM77 °FPassing clouds.16 mph65%29.98 "HgN/A
2:00 PM79 °FPassing clouds.15 mph61%30.01 "HgN/A
1:00 PM79 °FPassing clouds.12 mph61%30.07 "HgN/A
12:00 PM79 °FPassing clouds.13 mph58%30.09 "HgN/A
Weather by CustomWeather, © 2016

See weather overviewHow to use our weather pages